Weather History for Rawlins, WY

Change the Weather History Date:

Sunday, April 13, 2014

  Actual Average Record
Temperature  
Mean Temperature 24 °F 39 °F  
Max Temperature 36 °F 53 °F 71 °F (2006)
Min Temperature 11 °F 26 °F 11 °F (2014)
Degree Days  
Heating Degree Days 41 26  
Month to date heating degree days 326 354  
Since 1 July heating degree days 7031 7326  
Cooling Degree Days 0 0  
Month to date cooling degree days 0 0  
Year to date cooling degree days 0 0  
Moisture  
Dew Point 16 °F    
Average Humidity 81    
Maximum Humidity 89    
Minimum Humidity 73    
Precipitation  
Precipitation T in 0.04 in 0.57 in (1996)
Month to date precipitation 0.34 0.42  
Year to date precipitation 1.39 1.88  
Sea Level Pressure  
Sea Level Pressure 29.99 in    
Wind  
Wind Speed 17 mph (NNE)    
Max Wind Speed 31 mph    
Max Gust Speed 38 mph    
Visibility 5 miles    
Events Snow    
T = Trace of Precipitation, MM = Missing Value Source: NWS Daily Summary

Daily Weather History Graph

Daily Weather History Graph

Search for Another Location

Airport:

Trip Planner

Search our weather history database for the weather conditions in past years. The results will help you decide how hot, cold, wet, or windy it might be!

Date:

Astronomy

Apr. 13, 2014 Rise Set
Actual Time 6:31 AM MDT 7:47 PM MDT
Civil Twilight 6:02 AM MDT 8:16 PM MDT
Nautical Twilight 5:28 AM MDT 8:51 PM MDT
Astronomical Twilight 4:52 AM MDT 9:27 PM MDT
Moon 6:27 PM MDT (4/13) 5:33 AM MDT (4/13)
Length of Visible Light 14h 13m
Length of Day
13h 15m
Waxing Gibbous, 97% of the Moon is Illuminated
Apr 13
Waxing Gibbous
Apr 15
Full
Apr 22
Last Quarter
Apr 29
New
May 6
First Quarter

Hourly Weather History & Observations

Time (MDT) Temp. Windchill Dew Point Humidity Pressure Visibility Wind Dir Wind Speed Gust Speed Precip Events Conditions
12:46 AM 35.6 °F 30.7 °F 32.0 °F 87% 29.81 in 10.0 mi NNW 5.8 mph - N/A   Overcast
12:53 AM 36.0 °F 28.0 °F 32.0 °F 86% 29.65 in 10.0 mi North 11.5 mph - N/A   Overcast
1:53 AM 36.0 °F 28.0 °F 30.9 °F 82% 29.67 in 10.0 mi NNE 11.5 mph - N/A   Overcast
2:01 AM 35.6 °F 28.0 °F 30.2 °F 81% 29.82 in 10.0 mi NNE 10.4 mph - N/A   Overcast
2:53 AM 33.1 °F 23.0 °F 28.0 °F 82% 29.70 in 10.0 mi NNE 15.0 mph 23.0 mph N/A   Overcast
3:32 AM 30.2 °F 18.5 °F 26.6 °F 86% 29.81 in 10.0 mi NNE 17.3 mph 23.0 mph N/A   Overcast
3:42 AM 30.2 °F 18.1 °F 26.6 °F 86% 29.81 in 9.0 mi NE 18.4 mph 24.2 mph N/A   Overcast
3:53 AM 30.0 °F 17.5 °F 25.0 °F 82% 29.75 in 8.0 mi NNE 19.6 mph 26.5 mph N/A   Overcast
4:21 AM 30.2 °F 20.8 °F 26.6 °F 86% 29.82 in 8.0 mi NNE 11.5 mph - N/A   Overcast
4:48 AM 30.2 °F 19.8 °F 24.8 °F 80% 29.82 in 9.0 mi NE 13.8 mph - N/A   Overcast
4:53 AM 30.0 °F 19.5 °F 25.0 °F 82% 29.73 in 6.0 mi NE 13.8 mph - 0.00 in Snow Light Snow
5:53 AM 28.0 °F 18.1 °F 23.0 °F 81% 29.75 in 10.0 mi NNE 11.5 mph - 0.00 in   Overcast
6:53 AM 26.1 °F 13.1 °F 21.9 °F 84% 29.77 in 10.0 mi NNE 17.3 mph 25.3 mph N/A   Overcast
7:53 AM 26.1 °F 11.3 °F 21.0 °F 81% 29.79 in 10.0 mi NE 23.0 mph 29.9 mph N/A   Overcast
8:16 AM 24.8 °F 9.6 °F 19.4 °F 80% 29.83 in 10.0 mi NE 23.0 mph 31.1 mph N/A   Overcast
8:53 AM 25.0 °F 10.2 °F 19.0 °F 78% 29.83 in 10.0 mi NE 21.9 mph 32.2 mph N/A   Overcast
9:53 AM 24.1 °F 8.7 °F 18.0 °F 77% 29.87 in 4.0 mi NE 23.0 mph 32.2 mph 0.00 in Snow Light Snow
10:20 AM 24.8 °F 9.6 °F 17.6 °F 74% 29.87 in 2.5 mi NNE 23.0 mph 28.8 mph 0.00 in Snow Light Snow
10:29 AM 24.8 °F 10.3 °F 17.6 °F 74% 29.87 in 4.0 mi NNE 20.7 mph 32.2 mph 0.00 in Snow Light Snow
10:53 AM 23.0 °F 9.6 °F 17.1 °F 78% 29.91 in 2.5 mi NNE 16.1 mph 29.9 mph 0.00 in Snow Light Snow
11:07 AM 23.0 °F 7.6 °F 17.6 °F 80% 29.89 in 1.8 mi NNE 21.9 mph 27.6 mph 0.00 in Snow Light Snow
11:26 AM 21.2 °F 4.9 °F 15.8 °F 80% 29.90 in 1.0 mi North 23.0 mph 26.5 mph 0.00 in Snow Light Snow
11:39 AM 19.4 °F 2.5 °F 15.8 °F 86% 29.91 in 0.8 mi North 23.0 mph 35.7 mph 0.00 in Snow Light Snow
11:53 AM 19.9 °F 2.5 °F 14.0 °F 78% 29.97 in 1.0 mi North 25.3 mph 31.1 mph 0.00 in Snow Light Snow
12:02 PM 19.4 °F 0.5 °F 14.0 °F 80% 29.92 in 0.8 mi North 29.9 mph 36.8 mph 0.00 in Snow Light Snow
12:16 PM 19.4 °F 1.1 °F 12.2 °F 74% 29.92 in 1.0 mi North 27.6 mph 34.5 mph 0.00 in Snow Light Snow
12:37 PM 19.4 °F 1.4 °F 12.2 °F 74% 29.93 in 1.2 mi North 26.5 mph 36.8 mph 0.00 in Snow Light Snow
12:46 PM 19.4 °F 1.4 °F 12.2 °F 74% 29.94 in 1.0 mi North 26.5 mph 36.8 mph 0.00 in Snow Light Snow
12:53 PM 19.0 °F 0.3 °F 12.9 °F 77% 29.99 in 1.0 mi North 28.8 mph 33.4 mph 0.00 in Snow Light Snow
1:22 PM 19.4 °F 0.2 °F 12.2 °F 74% 29.96 in 1.0 mi NNE 31.1 mph 38.0 mph 0.00 in Snow Light Snow
1:28 PM 19.4 °F 1.8 °F 12.2 °F 74% 29.97 in 0.8 mi NNE 25.3 mph 38.0 mph 0.00 in Snow Light Snow
1:53 PM 19.0 °F 0.6 °F 12.9 °F 77% 30.02 in 0.8 mi NNE 27.6 mph 34.5 mph 0.00 in Snow Light Snow
2:41 PM 19.4 °F 2.1 °F 12.2 °F 74% 30.00 in 1.2 mi NNE 24.2 mph 32.2 mph 0.00 in Snow Light Snow
2:53 PM 19.0 °F 2.0 °F 12.9 °F 77% 30.09 in 1.5 mi NNE 23.0 mph 34.5 mph 0.00 in Snow Light Snow
3:09 PM 19.4 °F 3.6 °F 12.2 °F 74% 30.01 in 0.8 mi NNE 19.6 mph 27.6 mph 0.00 in Snow Light Snow
3:53 PM 19.0 °F 6.1 °F 14.0 °F 81% 30.12 in 0.8 mi NE 12.7 mph 21.9 mph 0.00 in Snow Light Snow
4:15 PM 19.4 °F 4.5 °F 12.2 °F 74% 30.04 in 1.0 mi NE 17.3 mph 25.3 mph 0.00 in Snow Light Snow
4:53 PM 19.0 °F 2.4 °F 12.9 °F 77% 30.15 in 1.0 mi NE 21.9 mph 27.6 mph 0.00 in Snow Light Snow
5:13 PM 19.4 °F 4.5 °F 12.2 °F 74% 30.06 in 3.0 mi NNE 17.3 mph 24.2 mph 0.00 in Snow Light Snow
5:30 PM 19.4 °F 4.5 °F 12.2 °F 74% 30.08 in 5.0 mi NNE 17.3 mph 21.9 mph 0.00 in Snow Light Snow
6:49 PM 17.6 °F 1.3 °F 10.4 °F 73% 30.11 in 3.0 mi NE 19.6 mph - 0.00 in Snow Light Snow
6:53 PM 17.1 °F 1.5 °F 10.9 °F 77% 30.24 in 3.0 mi NE 17.3 mph - 0.00 in Snow Light Snow
7:17 PM 17.6 °F 4.3 °F 10.4 °F 73% 30.12 in 2.5 mi NE 12.7 mph - 0.00 in Snow Light Snow
7:26 PM 17.6 °F 3.7 °F 10.4 °F 73% 30.12 in 4.0 mi NE 13.8 mph - 0.00 in Snow Light Snow
7:53 PM 16.0 °F 1.1 °F 10.9 °F 81% 30.27 in 3.0 mi NE 15.0 mph - 0.00 in Snow Light Snow
8:06 PM 15.8 °F 0.9 °F 10.4 °F 79% 30.14 in 9.0 mi NE 15.0 mph - 0.00 in   Overcast
8:53 PM 16.0 °F 2.9 °F 9.0 °F 74% 30.32 in 10.0 mi NE 11.5 mph - 0.00 in   Overcast
9:53 PM 15.1 °F 0.5 °F 9.0 °F 77% 30.37 in 10.0 mi NE 13.8 mph 20.7 mph N/A   Overcast
10:16 PM 15.8 °F 2.1 °F 10.4 °F 79% 30.22 in 1.8 mi NE 12.7 mph - 0.00 in Snow Light Snow
10:27 PM 15.8 °F 2.1 °F 10.4 °F 79% 30.22 in 3.0 mi NE 12.7 mph - 0.00 in Snow Light Snow
10:38 PM 15.8 °F 2.1 °F 10.4 °F 79% 30.22 in 3.0 mi ENE 12.7 mph - 0.00 in Snow Light Snow
10:48 PM 15.8 °F 2.7 °F 10.4 °F 79% 30.22 in 2.5 mi ENE 11.5 mph - 0.00 in Snow Light Snow
10:53 PM 15.1 °F 1.8 °F 10.0 °F 80% 30.39 in 2.0 mi NE 11.5 mph - 0.00 in Snow Light Snow
11:14 PM 15.8 °F 2.7 °F 8.6 °F 73% 30.23 in 5.0 mi NE 11.5 mph - 0.00 in Snow Light Snow
11:53 PM 15.1 °F 3.3 °F 8.1 °F 74% 30.41 in 10.0 mi NNE 9.2 mph - 0.00 in   Overcast